Data supplied by UK-AIR on 27/3/2019
All Data GMT hour ending 
Status: R =Ratified P=Provisional,P*=As supplied
,,Swansea Roadside,,,,,,,,,,,,,,,,,,,,,,,
Date,time,"PM<sub>10</sub> particulate matter (Hourly measured)",status,unit,"Nitric oxide",status,unit,"Nitrogen dioxide",status,unit,"Nitrogen oxides as nitrogen dioxide",status,unit,"PM<sub>2.5</sub> particulate matter (Hourly measured)",status,unit
 
01-01-2018,01:00,23.332,R,ugm-3 (Ref.eq),1.99598,R,ugm-3,3.81531,R,ugm-3,6.87577,R,ugm-3,8.000,R,ugm-3 (BAM)
01-01-2018,02:00,16.666,R,ugm-3 (Ref.eq),1.71084,R,ugm-3,4.68226,R,ugm-3,7.30550,R,ugm-3,8.000,R,ugm-3 (BAM)
01-01-2018,03:00,17.499,R,ugm-3 (Ref.eq),1.14056,R,ugm-3,3.67658,R,ugm-3,5.42541,R,ugm-3,9.000,R,ugm-3 (BAM)
01-01-2018,04:00,24.999,R,ugm-3 (Ref.eq),1.28313,R,ugm-3,2.86709,R,ugm-3,4.83452,R,ugm-3,10.000,R,ugm-3 (BAM)
01-01-2018,05:00,31.665,R,ugm-3 (Ref.eq),1.10492,R,ugm-3,3.14034,R,ugm-3,4.83452,R,ugm-3,12.000,R,ugm-3 (BAM)
01-01-2018,06:00,29.999,R,ugm-3 (Ref.eq),0.85542,R,ugm-3,2.60971,R,ugm-3,3.92134,R,ugm-3,13.000,R,ugm-3 (BAM)
01-01-2018,07:00,23.332,R,ugm-3 (Ref.eq),1.14056,R,ugm-3,4.37490,R,ugm-3,6.12373,R,ugm-3,12.000,R,ugm-3 (BAM)
01-01-2018,08:00,28.332,R,ugm-3 (Ref.eq),1.28313,R,ugm-3,5.28435,R,ugm-3,7.25178,R,ugm-3,15.000,R,ugm-3 (BAM)
01-01-2018,09:00,13.333,R,ugm-3 (Ref.eq),1.10492,R,ugm-3,3.78495,R,ugm-3,5.47913,R,ugm-3,5.000,R,ugm-3 (BAM)
01-01-2018,10:00,8.333,R,ugm-3 (Ref.eq),0.57028,R,ugm-3,6.16250,R,ugm-3,7.03692,R,ugm-3,7.000,R,ugm-3 (BAM)
01-01-2018,11:00,18.333,R,ugm-3 (Ref.eq),1.81776,R,ugm-3,12.79071,R,ugm-3,15.57791,R,ugm-3,9.000,R,ugm-3 (BAM)
01-01-2018,12:00,12.500,R,ugm-3 (Ref.eq),2.28112,R,ugm-3,8.85723,R,ugm-3,12.35489,R,ugm-3,6.000,R,ugm-3 (BAM)
01-01-2018,13:00,14.166,R,ugm-3 (Ref.eq),1.99598,R,ugm-3,7.14576,R,ugm-3,10.20621,R,ugm-3,4.000,R,ugm-3 (BAM)
01-01-2018,14:00,24.166,R,ugm-3 (Ref.eq),1.71084,R,ugm-3,6.61606,R,ugm-3,9.23931,R,ugm-3,6.000,R,ugm-3 (BAM)
01-01-2018,15:00,19.999,R,ugm-3 (Ref.eq),2.06726,R,ugm-3,8.11080,R,ugm-3,11.28055,R,ugm-3,9.000,R,ugm-3 (BAM)
01-01-2018,16:00,16.666,R,ugm-3 (Ref.eq),1.63955,R,ugm-3,8.12201,R,ugm-3,10.63595,R,ugm-3,9.000,R,ugm-3 (BAM)
01-01-2018,17:00,16.666,R,ugm-3 (Ref.eq),1.88905,R,ugm-3,9.94184,R,ugm-3,12.83834,R,ugm-3,6.000,R,ugm-3 (BAM)
01-01-2018,18:00,15.833,R,ugm-3 (Ref.eq),1.53263,R,ugm-3,10.70322,R,ugm-3,13.05321,R,ugm-3,6.000,R,ugm-3 (BAM)
01-01-2018,19:00,22.499,R,ugm-3 (Ref.eq),1.31877,R,ugm-3,10.01050,R,ugm-3,12.03259,R,ugm-3,9.000,R,ugm-3 (BAM)
01-01-2018,20:00,18.333,R,ugm-3 (Ref.eq),1.14056,R,ugm-3,9.04827,R,ugm-3,10.79710,R,ugm-3,11.000,R,ugm-3 (BAM)
01-01-2018,21:00,18.333,R,ugm-3 (Ref.eq),0.89106,R,ugm-3,7.06728,R,ugm-3,8.43356,R,ugm-3,10.000,R,ugm-3 (BAM)
01-01-2018,22:00,24.166,R,ugm-3 (Ref.eq),0.89106,R,ugm-3,8.83994,R,ugm-3,10.20621,R,ugm-3,9.000,R,ugm-3 (BAM)
01-01-2018,23:00,28.332,R,ugm-3 (Ref.eq),1.06927,R,ugm-3,9.05014,R,ugm-3,10.68967,R,ugm-3,12.000,R,ugm-3 (BAM)
01-01-2018,24:00,25.832,R,ugm-3 (Ref.eq),0.81978,R,ugm-3,7.71375,R,ugm-3,8.97073,R,ugm-3,9.000,R,ugm-3 (BAM)
02-01-2018,01:00,22.499,R,ugm-3 (Ref.eq),0.52167,R,ugm-3,5.91567,R,ugm-3,6.71556,R,ugm-3,9.000,R,ugm-3 (BAM)
02-01-2018,02:00,25.832,R,ugm-3 (Ref.eq),10.14894,R,ugm-3,29.80429,R,ugm-3,45.36578,R,ugm-3,13.000,R,ugm-3 (BAM)
02-01-2018,03:00,33.332,R,ugm-3 (Ref.eq),7.43386,R,ugm-3,25.62648,R,ugm-3,37.02491,R,ugm-3,26.000,R,ugm-3 (BAM)
02-01-2018,04:00,27.499,R,ugm-3 (Ref.eq),6.47351,R,ugm-3,29.99241,R,ugm-3,39.91831,R,ugm-3,11.000,R,ugm-3 (BAM)
02-01-2018,05:00,21.666,R,ugm-3 (Ref.eq),7.86069,R,ugm-3,39.06399,R,ugm-3,51.11688,R,ugm-3,10.000,R,ugm-3 (BAM)
02-01-2018,06:00,24.999,R,ugm-3 (Ref.eq),32.01184,R,ugm-3,46.45191,R,ugm-3,95.53605,R,ugm-3,16.000,R,ugm-3 (BAM)
02-01-2018,07:00,41.665,R,ugm-3 (Ref.eq),16.25490,R,ugm-3,36.10564,R,ugm-3,61.02948,R,ugm-3,18.000,R,ugm-3 (BAM)
02-01-2018,08:00,24.999,R,ugm-3 (Ref.eq),16.82400,R,ugm-3,29.71413,R,ugm-3,55.51057,R,ugm-3,9.000,R,ugm-3 (BAM)
02-01-2018,09:00,19.166,R,ugm-3 (Ref.eq),14.33419,R,ugm-3,32.51373,R,ugm-3,54.49252,R,ugm-3,8.000,R,ugm-3 (BAM)
02-01-2018,10:00,9.166,R,ugm-3 (Ref.eq),16.11263,R,ugm-3,34.44844,R,ugm-3,59.15412,R,ugm-3,8.000,R,ugm-3 (BAM)
02-01-2018,11:00,9.166,R,ugm-3 (Ref.eq),15.47239,R,ugm-3,38.91292,R,ugm-3,62.63693,R,ugm-3,7.000,R,ugm-3 (BAM)
02-01-2018,12:00,22.499,R,ugm-3 (Ref.eq),7.18488,R,ugm-3,12.23776,R,ugm-3,23.25443,R,ugm-3,7.000,R,ugm-3 (BAM)
02-01-2018,13:00,44.998,R,ugm-3 (Ref.eq),5.79770,R,ugm-3,13.50744,R,ugm-3,22.39712,R,ugm-3,17.000,R,ugm-3 (BAM)
02-01-2018,14:00,57.498,R,ugm-3 (Ref.eq),7.00704,R,ugm-3,14.49298,R,ugm-3,25.23695,R,ugm-3,20.000,R,ugm-3 (BAM)
02-01-2018,15:00,57.498,R,ugm-3 (Ref.eq),10.10152,R,ugm-3,22.33986,R,ugm-3,37.82863,R,ugm-3,27.000,R,ugm-3 (BAM)
02-01-2018,16:00,52.498,R,ugm-3 (Ref.eq),14.54760,R,ugm-3,28.11430,R,ugm-3,50.42031,R,ugm-3,25.000,R,ugm-3 (BAM)
02-01-2018,17:00,49.165,R,ugm-3 (Ref.eq),7.25602,R,ugm-3,19.63012,R,ugm-3,30.75586,R,ugm-3,22.000,R,ugm-3 (BAM)
02-01-2018,18:00,43.332,R,ugm-3 (Ref.eq),6.75806,R,ugm-3,14.92832,R,ugm-3,25.29053,R,ugm-3,24.000,R,ugm-3 (BAM)
02-01-2018,19:00,34.999,R,ugm-3 (Ref.eq),5.93998,R,ugm-3,10.44946,R,ugm-3,19.55730,R,ugm-3,14.000,R,ugm-3 (BAM)
02-01-2018,20:00,10.000,R,ugm-3 (Ref.eq),1.99185,R,ugm-3,5.62610,R,ugm-3,8.68022,R,ugm-3,11.000,R,ugm-3 (BAM)
02-01-2018,21:00,14.166,R,ugm-3 (Ref.eq),2.16969,R,ugm-3,2.62075,R,ugm-3,5.94756,R,ugm-3,10.000,R,ugm-3 (BAM)
02-01-2018,22:00,28.332,R,ugm-3 (Ref.eq),1.52945,R,ugm-3,2.63796,R,ugm-3,4.98309,R,ugm-3,11.000,R,ugm-3 (BAM)
02-01-2018,23:00,33.332,R,ugm-3 (Ref.eq),2.13412,R,ugm-3,4.87213,R,ugm-3,8.14441,R,ugm-3,9.000,R,ugm-3 (BAM)
02-01-2018,24:00,21.666,R,ugm-3 (Ref.eq),0.96036,R,ugm-3,1.74237,R,ugm-3,3.21490,R,ugm-3,8.000,R,ugm-3 (BAM)
03-01-2018,01:00,31.665,R,ugm-3 (Ref.eq),0.42594,R,ugm-3,0.77214,R,ugm-3,1.42524,R,ugm-3,11.000,R,ugm-3 (BAM)
03-01-2018,02:00,34.165,R,ugm-3 (Ref.eq),0.61525,R,ugm-3,0.48187,R,ugm-3,1.42524,R,ugm-3,16.000,R,ugm-3 (BAM)
03-01-2018,03:00,19.166,R,ugm-3 (Ref.eq),0.35495,R,ugm-3,0.36434,R,ugm-3,0.90859,R,ugm-3,9.000,R,ugm-3 (BAM)
03-01-2018,04:00,24.999,R,ugm-3 (Ref.eq),0.31946,R,ugm-3,0.47221,R,ugm-3,0.96203,R,ugm-3,9.000,R,ugm-3 (BAM)
03-01-2018,05:00,24.999,R,ugm-3 (Ref.eq),0.31946,R,ugm-3,0.36532,R,ugm-3,0.85514,R,ugm-3,11.000,R,ugm-3 (BAM)
03-01-2018,06:00,27.499,R,ugm-3 (Ref.eq),0.67441,R,ugm-3,1.85203,R,ugm-3,2.88610,R,ugm-3,18.000,R,ugm-3 (BAM)
03-01-2018,07:00,22.499,R,ugm-3 (Ref.eq),0.99386,R,ugm-3,3.76729,R,ugm-3,5.29119,R,ugm-3,14.000,R,ugm-3 (BAM)
03-01-2018,08:00,28.332,R,ugm-3 (Ref.eq),2.59114,R,ugm-3,9.06789,R,ugm-3,13.04091,R,ugm-3,14.000,R,ugm-3 (BAM)
03-01-2018,09:00,37.499,R,ugm-3 (Ref.eq),4.79183,R,ugm-3,12.74846,R,ugm-3,20.09583,R,ugm-3,14.000,R,ugm-3 (BAM)
03-01-2018,10:00,39.998,R,ugm-3 (Ref.eq),4.33039,R,ugm-3,11.58537,R,ugm-3,18.22521,R,ugm-3,23.000,R,ugm-3 (BAM)
03-01-2018,11:00,37.499,R,ugm-3 (Ref.eq),5.11128,R,ugm-3,13.96892,R,ugm-3,21.80611,R,ugm-3,21.000,R,ugm-3 (BAM)
03-01-2018,12:00,,,,,,,,,,,,,,,
03-01-2018,13:00,39.165,R,ugm-3 (Ref.eq),4.59069,R,ugm-3,12.77182,R,ugm-3,19.81078,R,ugm-3,18.000,R,ugm-3 (BAM)
03-01-2018,14:00,100.829,R,ugm-3 (Ref.eq),5.99866,R,ugm-3,11.86005,R,ugm-3,21.05786,R,ugm-3,16.000,R,ugm-3 (BAM)
03-01-2018,15:00,36.665,R,ugm-3 (Ref.eq),4.11742,R,ugm-3,11.69813,R,ugm-3,18.01142,R,ugm-3,15.000,R,ugm-3 (BAM)
03-01-2018,16:00,34.999,R,ugm-3 (Ref.eq),4.75633,R,ugm-3,15.63554,R,ugm-3,22.92848,R,ugm-3,18.000,R,ugm-3 (BAM)
03-01-2018,17:00,36.665,R,ugm-3 (Ref.eq),3.93995,R,ugm-3,13.09263,R,ugm-3,19.13379,R,ugm-3,17.000,R,ugm-3 (BAM)
03-01-2018,18:00,48.331,R,ugm-3 (Ref.eq),6.28262,R,ugm-3,14.68488,R,ugm-3,24.31809,R,ugm-3,27.000,R,ugm-3 (BAM)
03-01-2018,19:00,48.331,R,ugm-3 (Ref.eq),2.94609,R,ugm-3,12.74590,R,ugm-3,17.26317,R,ugm-3,24.000,R,ugm-3 (BAM)
03-01-2018,20:00,35.832,R,ugm-3 (Ref.eq),4.22391,R,ugm-3,15.27610,R,ugm-3,21.75266,R,ugm-3,16.000,R,ugm-3 (BAM)
03-01-2018,21:00,38.332,R,ugm-3 (Ref.eq),3.37203,R,ugm-3,13.80309,R,ugm-3,18.97345,R,ugm-3,23.000,R,ugm-3 (BAM)
03-01-2018,22:00,24.999,R,ugm-3 (Ref.eq),3.23005,R,ugm-3,10.65367,R,ugm-3,15.60633,R,ugm-3,11.000,R,ugm-3 (BAM)
03-01-2018,23:00,27.499,R,ugm-3 (Ref.eq),1.84574,R,ugm-3,7.75228,R,ugm-3,10.58238,R,ugm-3,11.000,R,ugm-3 (BAM)
03-01-2018,24:00,,,,1.51445,R,ugm-3,5.37414,R,ugm-3,7.69628,R,ugm-3,,,
04-01-2018,01:00,,,,,,,,,,,,,,,
04-01-2018,02:00,,,,,,,,,,,,,,,
04-01-2018,03:00,8.333,R,ugm-3 (Ref.eq),0.85222,R,ugm-3,6.88198,R,ugm-3,8.18871,R,ugm-3,6.000,R,ugm-3 (BAM)
04-01-2018,04:00,8.333,R,ugm-3 (Ref.eq),2.23709,R,ugm-3,21.02893,R,ugm-3,24.45908,R,ugm-3,6.000,R,ugm-3 (BAM)
04-01-2018,05:00,5.000,R,ugm-3 (Ref.eq),2.23709,R,ugm-3,11.07403,R,ugm-3,14.50418,R,ugm-3,6.000,R,ugm-3 (BAM)
04-01-2018,06:00,7.500,R,ugm-3 (Ref.eq),2.94727,R,ugm-3,10.41326,R,ugm-3,14.93235,R,ugm-3,4.000,R,ugm-3 (BAM)
04-01-2018,07:00,10.833,R,ugm-3 (Ref.eq),3.44440,R,ugm-3,7.99186,R,ugm-3,13.27320,R,ugm-3,6.000,R,ugm-3 (BAM)
04-01-2018,08:00,25.832,R,ugm-3 (Ref.eq),4.08357,R,ugm-3,5.51323,R,ugm-3,11.77461,R,ugm-3,8.000,R,ugm-3 (BAM)
04-01-2018,09:00,44.165,R,ugm-3 (Ref.eq),5.93005,R,ugm-3,11.94112,R,ugm-3,21.03374,R,ugm-3,18.000,R,ugm-3 (BAM)
04-01-2018,10:00,53.331,R,ugm-3 (Ref.eq),4.43866,R,ugm-3,9.51804,R,ugm-3,16.32389,R,ugm-3,23.000,R,ugm-3 (BAM)
04-01-2018,11:00,42.498,R,ugm-3 (Ref.eq),3.90602,R,ugm-3,5.94602,R,ugm-3,11.93517,R,ugm-3,14.000,R,ugm-3 (BAM)
04-01-2018,12:00,45.832,R,ugm-3 (Ref.eq),3.23135,R,ugm-3,6.98051,R,ugm-3,11.93517,R,ugm-3,13.000,R,ugm-3 (BAM)
04-01-2018,13:00,18.333,R,ugm-3 (Ref.eq),3.30236,R,ugm-3,9.44062,R,ugm-3,14.50418,R,ugm-3,9.000,R,ugm-3 (BAM)
04-01-2018,14:00,18.333,R,ugm-3 (Ref.eq),2.94727,R,ugm-3,10.46678,R,ugm-3,14.98587,R,ugm-3,6.000,R,ugm-3 (BAM)
04-01-2018,15:00,16.666,R,ugm-3 (Ref.eq),3.37338,R,ugm-3,12.81059,R,ugm-3,17.98304,R,ugm-3,8.000,R,ugm-3 (BAM)
04-01-2018,16:00,14.999,R,ugm-3 (Ref.eq),3.47991,R,ugm-3,15.80499,R,ugm-3,21.14078,R,ugm-3,10.000,R,ugm-3 (BAM)
04-01-2018,17:00,18.333,R,ugm-3 (Ref.eq),6.42718,R,ugm-3,27.39571,R,ugm-3,37.25059,R,ugm-3,8.000,R,ugm-3 (BAM)
04-01-2018,18:00,26.666,R,ugm-3 (Ref.eq),13.13844,R,ugm-3,32.89394,R,ugm-3,53.03927,R,ugm-3,4.000,R,ugm-3 (BAM)
04-01-2018,19:00,19.999,R,ugm-3 (Ref.eq),23.01002,R,ugm-3,44.89285,R,ugm-3,80.17439,R,ugm-3,7.000,R,ugm-3 (BAM)
04-01-2018,20:00,21.666,R,ugm-3 (Ref.eq),41.47486,R,ugm-3,68.44231,R,ugm-3,132.03620,R,ugm-3,12.000,R,ugm-3 (BAM)
04-01-2018,21:00,10.833,R,ugm-3 (Ref.eq),15.65960,R,ugm-3,40.16058,R,ugm-3,64.17163,R,ugm-3,11.000,R,ugm-3 (BAM)
04-01-2018,22:00,9.166,R,ugm-3 (Ref.eq),7.38593,R,ugm-3,30.31436,R,ugm-3,41.63930,R,ugm-3,7.000,R,ugm-3 (BAM)
04-01-2018,23:00,7.500,R,ugm-3 (Ref.eq),14.16821,R,ugm-3,42.39382,R,ugm-3,64.11810,R,ugm-3,4.000,R,ugm-3 (BAM)
04-01-2018,24:00,8.333,R,ugm-3 (Ref.eq),13.91964,R,ugm-3,51.87351,R,ugm-3,73.21667,R,ugm-3,6.000,R,ugm-3 (BAM)
05-01-2018,01:00,9.166,R,ugm-3 (Ref.eq),6.77317,R,ugm-3,52.78593,R,ugm-3,63.17131,R,ugm-3,7.000,R,ugm-3 (BAM)
05-01-2018,02:00,10.000,R,ugm-3 (Ref.eq),6.20479,R,ugm-3,31.86190,R,ugm-3,41.37578,R,ugm-3,6.000,R,ugm-3 (BAM)
05-01-2018,03:00,17.499,R,ugm-3 (Ref.eq),0.49733,R,ugm-3,1.64924,R,ugm-3,2.41180,R,ugm-3,8.000,R,ugm-3 (BAM)
05-01-2018,04:00,18.333,R,ugm-3 (Ref.eq),0.39076,R,ugm-3,0.95512,R,ugm-3,1.55427,R,ugm-3,9.000,R,ugm-3 (BAM)
05-01-2018,05:00,15.833,R,ugm-3 (Ref.eq),0.71047,R,ugm-3,2.23355,R,ugm-3,3.32293,R,ugm-3,6.000,R,ugm-3 (BAM)
05-01-2018,06:00,14.999,R,ugm-3 (Ref.eq),0.85257,R,ugm-3,1.53331,R,ugm-3,2.84057,R,ugm-3,5.000,R,ugm-3 (BAM)
05-01-2018,07:00,12.500,R,ugm-3 (Ref.eq),2.41560,R,ugm-3,4.38906,R,ugm-3,8.09293,R,ugm-3,5.000,R,ugm-3 (BAM)
05-01-2018,08:00,10.833,R,ugm-3 (Ref.eq),6.25215,R,ugm-3,9.33274,R,ugm-3,18.91923,R,ugm-3,5.000,R,ugm-3 (BAM)
05-01-2018,09:00,10.000,R,ugm-3 (Ref.eq),8.77433,R,ugm-3,15.64861,R,ugm-3,29.10239,R,ugm-3,7.000,R,ugm-3 (BAM)
05-01-2018,10:00,9.166,R,ugm-3 (Ref.eq),5.68377,R,ugm-3,13.25918,R,ugm-3,21.97418,R,ugm-3,9.000,R,ugm-3 (BAM)
05-01-2018,11:00,12.500,R,ugm-3 (Ref.eq),4.26283,R,ugm-3,19.72558,R,ugm-3,26.26183,R,ugm-3,4.000,R,ugm-3 (BAM)
05-01-2018,12:00,8.333,R,ugm-3 (Ref.eq),4.86673,R,ugm-3,20.30029,R,ugm-3,27.76250,R,ugm-3,2.000,R,ugm-3 (BAM)
05-01-2018,13:00,7.500,R,ugm-3 (Ref.eq),6.11006,R,ugm-3,24.39658,R,ugm-3,33.76521,R,ugm-3,6.000,R,ugm-3 (BAM)
05-01-2018,14:00,7.500,R,ugm-3 (Ref.eq),20.95892,R,ugm-3,44.39791,R,ugm-3,76.53447,R,ugm-3,7.000,R,ugm-3 (BAM)
05-01-2018,15:00,14.166,R,ugm-3 (Ref.eq),40.67451,R,ugm-3,63.42208,R,ugm-3,125.78879,R,ugm-3,8.000,R,ugm-3 (BAM)
05-01-2018,16:00,17.499,R,ugm-3 (Ref.eq),119.07507,R,ugm-3,98.36872,R,ugm-3,280.94795,R,ugm-3,15.000,R,ugm-3 (BAM)
05-01-2018,17:00,27.499,R,ugm-3 (Ref.eq),162.87566,R,ugm-3,113.15638,R,ugm-3,362.89557,R,ugm-3,20.000,R,ugm-3 (BAM)
05-01-2018,18:00,29.999,R,ugm-3 (Ref.eq),215.73476,R,ugm-3,116.94867,R,ugm-3,447.73735,R,ugm-3,27.000,R,ugm-3 (BAM)
05-01-2018,19:00,24.999,R,ugm-3 (Ref.eq),175.30891,R,ugm-3,92.16288,R,ugm-3,360.96613,R,ugm-3,21.000,R,ugm-3 (BAM)
05-01-2018,20:00,23.332,R,ugm-3 (Ref.eq),151.18840,R,ugm-3,82.51901,R,ugm-3,314.33799,R,ugm-3,22.000,R,ugm-3 (BAM)
05-01-2018,21:00,19.166,R,ugm-3 (Ref.eq),65.29236,R,ugm-3,60.13719,R,ugm-3,160.25074,R,ugm-3,17.000,R,ugm-3 (BAM)
05-01-2018,22:00,19.999,R,ugm-3 (Ref.eq),70.15909,R,ugm-3,68.27128,R,ugm-3,175.84705,R,ugm-3,21.000,R,ugm-3 (BAM)
05-01-2018,23:00,14.999,R,ugm-3 (Ref.eq),52.18415,R,ugm-3,59.06591,R,ugm-3,139.08049,R,ugm-3,22.000,R,ugm-3 (BAM)
05-01-2018,24:00,17.499,R,ugm-3 (Ref.eq),80.81616,R,ugm-3,60.18437,R,ugm-3,184.10076,R,ugm-3,15.000,R,ugm-3 (BAM)
06-01-2018,01:00,19.166,R,ugm-3 (Ref.eq),45.58326,R,ugm-3,49.75535,R,ugm-3,119.64871,R,ugm-3,10.000,R,ugm-3 (BAM)
06-01-2018,02:00,14.166,R,ugm-3 (Ref.eq),47.14693,R,ugm-3,47.50089,R,ugm-3,119.79183,R,ugm-3,17.000,R,ugm-3 (BAM)
06-01-2018,03:00,11.666,R,ugm-3 (Ref.eq),13.93085,R,ugm-3,43.15121,R,ugm-3,64.51155,R,ugm-3,7.000,R,ugm-3 (BAM)
06-01-2018,04:00,11.666,R,ugm-3 (Ref.eq),3.19841,R,ugm-3,26.00986,R,ugm-3,30.91402,R,ugm-3,8.000,R,ugm-3 (BAM)
06-01-2018,05:00,14.999,R,ugm-3 (Ref.eq),10.91013,R,ugm-3,28.24697,R,ugm-3,44.97561,R,ugm-3,8.000,R,ugm-3 (BAM)
06-01-2018,06:00,12.500,R,ugm-3 (Ref.eq),21.92687,R,ugm-3,40.01474,R,ugm-3,73.63548,R,ugm-3,7.000,R,ugm-3 (BAM)
06-01-2018,07:00,10.000,R,ugm-3 (Ref.eq),37.95446,R,ugm-3,49.46634,R,ugm-3,107.66237,R,ugm-3,7.000,R,ugm-3 (BAM)
06-01-2018,08:00,10.000,R,ugm-3 (Ref.eq),24.94759,R,ugm-3,55.77770,R,ugm-3,94.03014,R,ugm-3,8.000,R,ugm-3 (BAM)
06-01-2018,09:00,14.166,R,ugm-3 (Ref.eq),40.61980,R,ugm-3,54.02044,R,ugm-3,116.30327,R,ugm-3,10.000,R,ugm-3 (BAM)
06-01-2018,10:00,13.333,R,ugm-3 (Ref.eq),10.12830,R,ugm-3,34.11507,R,ugm-3,49.64491,R,ugm-3,12.000,R,ugm-3 (BAM)
06-01-2018,11:00,14.999,R,ugm-3 (Ref.eq),42.39670,R,ugm-3,44.58714,R,ugm-3,109.59450,R,ugm-3,13.000,R,ugm-3 (BAM)
06-01-2018,12:00,13.333,R,ugm-3 (Ref.eq),29.03445,R,ugm-3,38.40155,R,ugm-3,82.92042,R,ugm-3,18.000,R,ugm-3 (BAM)
06-01-2018,13:00,8.333,R,ugm-3 (Ref.eq),5.50837,R,ugm-3,21.82393,R,ugm-3,30.26998,R,ugm-3,8.000,R,ugm-3 (BAM)
06-01-2018,14:00,10.000,R,ugm-3 (Ref.eq),18.19540,R,ugm-3,30.44026,R,ugm-3,58.33948,R,ugm-3,10.000,R,ugm-3 (BAM)
06-01-2018,15:00,10.833,R,ugm-3 (Ref.eq),17.30695,R,ugm-3,29.11902,R,ugm-3,55.65597,R,ugm-3,10.000,R,ugm-3 (BAM)
06-01-2018,16:00,8.333,R,ugm-3 (Ref.eq),15.45898,R,ugm-3,23.47264,R,ugm-3,47.17608,R,ugm-3,6.000,R,ugm-3 (BAM)
06-01-2018,17:00,14.166,R,ugm-3 (Ref.eq),11.58535,R,ugm-3,23.93777,R,ugm-3,41.70172,R,ugm-3,8.000,R,ugm-3 (BAM)
06-01-2018,18:00,12.500,R,ugm-3 (Ref.eq),12.58041,R,ugm-3,19.88953,R,ugm-3,39.17923,R,ugm-3,9.000,R,ugm-3 (BAM)
06-01-2018,19:00,18.333,R,ugm-3 (Ref.eq),8.84893,R,ugm-3,19.38531,R,ugm-3,32.95349,R,ugm-3,8.000,R,ugm-3 (BAM)
06-01-2018,20:00,14.166,R,ugm-3 (Ref.eq),4.05132,R,ugm-3,14.71943,R,ugm-3,20.93137,R,ugm-3,9.000,R,ugm-3 (BAM)
06-01-2018,21:00,15.833,R,ugm-3 (Ref.eq),3.23395,R,ugm-3,11.41075,R,ugm-3,16.36940,R,ugm-3,7.000,R,ugm-3 (BAM)
06-01-2018,22:00,14.166,R,ugm-3 (Ref.eq),6.68112,R,ugm-3,16.69818,R,ugm-3,26.94243,R,ugm-3,10.000,R,ugm-3 (BAM)
06-01-2018,23:00,14.166,R,ugm-3 (Ref.eq),4.12239,R,ugm-3,15.63018,R,ugm-3,21.95110,R,ugm-3,11.000,R,ugm-3 (BAM)
06-01-2018,24:00,11.666,R,ugm-3 (Ref.eq),2.48765,R,ugm-3,22.53771,R,ugm-3,26.35205,R,ugm-3,9.000,R,ugm-3 (BAM)
07-01-2018,01:00,13.333,R,ugm-3 (Ref.eq),3.65002,R,ugm-3,13.89482,R,ugm-3,19.49144,R,ugm-3,6.000,R,ugm-3 (BAM)
07-01-2018,02:00,13.333,R,ugm-3 (Ref.eq),0.61624,R,ugm-3,7.36764,R,ugm-3,8.31253,R,ugm-3,6.000,R,ugm-3 (BAM)
07-01-2018,03:00,14.166,R,ugm-3 (Ref.eq),6.47050,R,ugm-3,17.32732,R,ugm-3,27.24860,R,ugm-3,8.000,R,ugm-3 (BAM)
07-01-2018,04:00,14.999,R,ugm-3 (Ref.eq),2.63086,R,ugm-3,10.36967,R,ugm-3,14.40360,R,ugm-3,6.000,R,ugm-3 (BAM)
07-01-2018,05:00,14.166,R,ugm-3 (Ref.eq),3.37746,R,ugm-3,11.80466,R,ugm-3,16.98335,R,ugm-3,6.000,R,ugm-3 (BAM)
07-01-2018,06:00,14.166,R,ugm-3 (Ref.eq),0.67549,R,ugm-3,6.21981,R,ugm-3,7.25555,R,ugm-3,8.000,R,ugm-3 (BAM)
07-01-2018,07:00,10.833,R,ugm-3 (Ref.eq),9.17246,R,ugm-3,25.06196,R,ugm-3,39.12620,R,ugm-3,8.000,R,ugm-3 (BAM)
07-01-2018,08:00,10.000,R,ugm-3 (Ref.eq),8.46142,R,ugm-3,20.29403,R,ugm-3,33.26802,R,ugm-3,8.000,R,ugm-3 (BAM)
07-01-2018,09:00,10.000,R,ugm-3 (Ref.eq),4.83510,R,ugm-3,11.98816,R,ugm-3,19.40187,R,ugm-3,3.000,R,ugm-3 (BAM)
07-01-2018,10:00,9.166,R,ugm-3 (Ref.eq),5.08396,R,ugm-3,10.90789,R,ugm-3,18.70319,R,ugm-3,-1.000,R,ugm-3 (BAM)
07-01-2018,11:00,9.166,R,ugm-3 (Ref.eq),12.62102,R,ugm-3,18.59185,R,ugm-3,37.94382,R,ugm-3,4.000,R,ugm-3 (BAM)
07-01-2018,12:00,14.999,R,ugm-3 (Ref.eq),10.66565,R,ugm-3,13.79705,R,ugm-3,30.15082,R,ugm-3,8.000,R,ugm-3 (BAM)
07-01-2018,13:00,16.666,R,ugm-3 (Ref.eq),13.18986,R,ugm-3,18.47208,R,ugm-3,38.69624,R,ugm-3,7.000,R,ugm-3 (BAM)
07-01-2018,14:00,14.999,R,ugm-3 (Ref.eq),11.98108,R,ugm-3,19.19686,R,ugm-3,37.56760,R,ugm-3,7.000,R,ugm-3 (BAM)
07-01-2018,15:00,16.666,R,ugm-3 (Ref.eq),8.78139,R,ugm-3,14.48268,R,ugm-3,27.94729,R,ugm-3,6.000,R,ugm-3 (BAM)
07-01-2018,16:00,14.999,R,ugm-3 (Ref.eq),14.22087,R,ugm-3,19.36347,R,ugm-3,41.16850,R,ugm-3,4.000,R,ugm-3 (BAM)
07-01-2018,17:00,12.500,R,ugm-3 (Ref.eq),14.32753,R,ugm-3,23.17705,R,ugm-3,45.14562,R,ugm-3,4.000,R,ugm-3 (BAM)
07-01-2018,18:00,14.999,R,ugm-3 (Ref.eq),14.32753,R,ugm-3,31.34626,R,ugm-3,53.31482,R,ugm-3,4.000,R,ugm-3 (BAM)
07-01-2018,19:00,17.499,R,ugm-3 (Ref.eq),15.28744,R,ugm-3,24.60743,R,ugm-3,48.04784,R,ugm-3,6.000,R,ugm-3 (BAM)
07-01-2018,20:00,10.833,R,ugm-3 (Ref.eq),9.95461,R,ugm-3,21.01421,R,ugm-3,36.27773,R,ugm-3,6.000,R,ugm-3 (BAM)
07-01-2018,21:00,14.166,R,ugm-3 (Ref.eq),8.14145,R,ugm-3,26.91155,R,ugm-3,39.39493,R,ugm-3,6.000,R,ugm-3 (BAM)
07-01-2018,22:00,14.166,R,ugm-3 (Ref.eq),6.11497,R,ugm-3,18.24865,R,ugm-3,27.62482,R,ugm-3,3.000,R,ugm-3 (BAM)
07-01-2018,23:00,10.000,R,ugm-3 (Ref.eq),3.65002,R,ugm-3,11.53005,R,ugm-3,17.12667,R,ugm-3,3.000,R,ugm-3 (BAM)
07-01-2018,24:00,10.833,R,ugm-3 (Ref.eq),2.70197,R,ugm-3,12.03423,R,ugm-3,16.17718,R,ugm-3,7.000,R,ugm-3 (BAM)
08-01-2018,01:00,10.000,R,ugm-3 (Ref.eq),3.79376,R,ugm-3,11.47695,R,ugm-3,17.29397,R,ugm-3,6.000,R,ugm-3 (BAM)
08-01-2018,02:00,8.333,R,ugm-3 (Ref.eq),1.37524,R,ugm-3,8.72697,R,ugm-3,10.83564,R,ugm-3,6.000,R,ugm-3 (BAM)
08-01-2018,03:00,7.500,R,ugm-3 (Ref.eq),1.56493,R,ugm-3,12.18554,R,ugm-3,14.58506,R,ugm-3,6.000,R,ugm-3 (BAM)
08-01-2018,04:00,10.000,R,ugm-3 (Ref.eq),2.34739,R,ugm-3,11.68543,R,ugm-3,15.28471,R,ugm-3,6.000,R,ugm-3 (BAM)
08-01-2018,05:00,11.666,R,ugm-3 (Ref.eq),4.01901,R,ugm-3,14.12751,R,ugm-3,20.28991,R,ugm-3,5.000,R,ugm-3 (BAM)
08-01-2018,06:00,11.666,R,ugm-3 (Ref.eq),8.14472,R,ugm-3,20.66435,R,ugm-3,33.15275,R,ugm-3,4.000,R,ugm-3 (BAM)
08-01-2018,07:00,11.666,R,ugm-3 (Ref.eq),22.15791,R,ugm-3,34.16036,R,ugm-3,68.13535,R,ugm-3,8.000,R,ugm-3 (BAM)
08-01-2018,08:00,12.500,R,ugm-3 (Ref.eq),59.28931,R,ugm-3,47.40683,R,ugm-3,138.31584,R,ugm-3,9.000,R,ugm-3 (BAM)
08-01-2018,09:00,16.666,R,ugm-3 (Ref.eq),89.44967,R,ugm-3,64.02263,R,ugm-3,201.17689,R,ugm-3,10.000,R,ugm-3 (BAM)
08-01-2018,10:00,15.833,R,ugm-3 (Ref.eq),75.82772,R,ugm-3,60.42152,R,ugm-3,176.68906,R,ugm-3,12.000,R,ugm-3 (BAM)
08-01-2018,11:00,17.499,R,ugm-3 (Ref.eq),87.06672,R,ugm-3,57.28930,R,ugm-3,190.78974,R,ugm-3,12.000,R,ugm-3 (BAM)
08-01-2018,12:00,15.833,R,ugm-3 (Ref.eq),54.80793,R,ugm-3,51.37193,R,ugm-3,135.40959,R,ugm-3,11.000,R,ugm-3 (BAM)
08-01-2018,13:00,29.166,R,ugm-3 (Ref.eq),45.80962,R,ugm-3,46.38619,R,ugm-3,116.62662,R,ugm-3,12.000,R,ugm-3 (BAM)
08-01-2018,14:00,28.332,R,ugm-3 (Ref.eq),38.41179,R,ugm-3,38.89258,R,ugm-3,97.78983,R,ugm-3,12.000,R,ugm-3 (BAM)
08-01-2018,15:00,20.833,R,ugm-3 (Ref.eq),64.05521,R,ugm-3,49.19469,R,ugm-3,147.41131,R,ugm-3,10.000,R,ugm-3 (BAM)
08-01-2018,16:00,19.166,R,ugm-3 (Ref.eq),52.95848,R,ugm-3,57.59835,R,ugm-3,138.80021,R,ugm-3,10.000,R,ugm-3 (BAM)
08-01-2018,17:00,14.166,R,ugm-3 (Ref.eq),47.65907,R,ugm-3,51.73095,R,ugm-3,124.80717,R,ugm-3,12.000,R,ugm-3 (BAM)
08-01-2018,18:00,17.499,R,ugm-3 (Ref.eq),60.10734,R,ugm-3,53.74107,R,ugm-3,145.90437,R,ugm-3,16.000,R,ugm-3 (BAM)
08-01-2018,19:00,12.500,R,ugm-3 (Ref.eq),43.74676,R,ugm-3,49.60301,R,ugm-3,116.68044,R,ugm-3,11.000,R,ugm-3 (BAM)
08-01-2018,20:00,9.166,R,ugm-3 (Ref.eq),32.40106,R,ugm-3,47.14016,R,ugm-3,96.82109,R,ugm-3,18.000,R,ugm-3 (BAM)
08-01-2018,21:00,12.500,R,ugm-3 (Ref.eq),14.22659,R,ugm-3,36.31114,R,ugm-3,58.12494,R,ugm-3,10.000,R,ugm-3 (BAM)
08-01-2018,22:00,11.666,R,ugm-3 (Ref.eq),7.89576,R,ugm-3,26.85858,R,ugm-3,38.96524,R,ugm-3,12.000,R,ugm-3 (BAM)
08-01-2018,23:00,14.166,R,ugm-3 (Ref.eq),7.50453,R,ugm-3,24.22930,R,ugm-3,35.73608,R,ugm-3,16.000,R,ugm-3 (BAM)
08-01-2018,24:00,15.833,R,ugm-3 (Ref.eq),6.54423,R,ugm-3,24.14097,R,ugm-3,34.17531,R,ugm-3,19.000,R,ugm-3 (BAM)
09-01-2018,01:00,17.499,R,ugm-3 (Ref.eq),2.18229,R,ugm-3,24.75061,R,ugm-3,28.09674,R,ugm-3,17.000,R,ugm-3 (BAM)
09-01-2018,02:00,18.333,R,ugm-3 (Ref.eq),1.89764,R,ugm-3,25.97751,R,ugm-3,28.88718,R,ugm-3,17.000,R,ugm-3 (BAM)
09-01-2018,03:00,23.332,R,ugm-3 (Ref.eq),2.63298,R,ugm-3,29.96994,R,ugm-3,34.00712,R,ugm-3,19.000,R,ugm-3 (BAM)
09-01-2018,04:00,27.499,R,ugm-3 (Ref.eq),4.23411,R,ugm-3,31.12580,R,ugm-3,37.61801,R,ugm-3,27.000,R,ugm-3 (BAM)
09-01-2018,05:00,19.999,R,ugm-3 (Ref.eq),3.20227,R,ugm-3,23.65374,R,ugm-3,28.56382,R,ugm-3,17.000,R,ugm-3 (BAM)
09-01-2018,06:00,16.666,R,ugm-3 (Ref.eq),3.45133,R,ugm-3,18.74475,R,ugm-3,24.03673,R,ugm-3,14.000,R,ugm-3 (BAM)
09-01-2018,07:00,11.666,R,ugm-3 (Ref.eq),8.29032,R,ugm-3,22.75061,R,ugm-3,35.46225,R,ugm-3,17.000,R,ugm-3 (BAM)
09-01-2018,08:00,12.500,R,ugm-3 (Ref.eq),22.87843,R,ugm-3,28.94630,R,ugm-3,64.02607,R,ugm-3,17.000,R,ugm-3 (BAM)
09-01-2018,09:00,13.333,R,ugm-3 (Ref.eq),30.42156,R,ugm-3,32.47066,R,ugm-3,79.11639,R,ugm-3,12.000,R,ugm-3 (BAM)
09-01-2018,10:00,25.832,R,ugm-3 (Ref.eq),42.34111,R,ugm-3,36.93753,R,ugm-3,101.85966,R,ugm-3,21.000,R,ugm-3 (BAM)
09-01-2018,11:00,24.999,R,ugm-3 (Ref.eq),46.96661,R,ugm-3,40.19284,R,ugm-3,112.20731,R,ugm-3,18.000,R,ugm-3 (BAM)
09-01-2018,12:00,22.499,R,ugm-3 (Ref.eq),47.03777,R,ugm-3,38.14355,R,ugm-3,110.26713,R,ugm-3,25.000,R,ugm-3 (BAM)
09-01-2018,13:00,30.832,R,ugm-3 (Ref.eq),42.87482,R,ugm-3,36.98149,R,ugm-3,102.72196,R,ugm-3,23.000,R,ugm-3 (BAM)
09-01-2018,14:00,39.165,R,ugm-3 (Ref.eq),49.24378,R,ugm-3,39.82709,R,ugm-3,115.33316,R,ugm-3,29.000,R,ugm-3 (BAM)
09-01-2018,15:00,44.165,R,ugm-3 (Ref.eq),42.12763,R,ugm-3,41.03745,R,ugm-3,105.63224,R,ugm-3,32.000,R,ugm-3 (BAM)
09-01-2018,16:00,29.166,R,ugm-3 (Ref.eq),44.19131,R,ugm-3,46.98126,R,ugm-3,114.74033,R,ugm-3,32.000,R,ugm-3 (BAM)
09-01-2018,17:00,34.999,R,ugm-3 (Ref.eq),39.49465,R,ugm-3,40.97868,R,ugm-3,101.53630,R,ugm-3,24.000,R,ugm-3 (BAM)
09-01-2018,18:00,24.166,R,ugm-3 (Ref.eq),34.54892,R,ugm-3,47.21467,R,ugm-3,100.18895,R,ugm-3,24.000,R,ugm-3 (BAM)
09-01-2018,19:00,29.166,R,ugm-3 (Ref.eq),19.99639,R,ugm-3,39.83265,R,ugm-3,70.49335,R,ugm-3,21.000,R,ugm-3 (BAM)
09-01-2018,20:00,28.332,R,ugm-3 (Ref.eq),18.43084,R,ugm-3,34.31071,R,ugm-3,62.57093,R,ugm-3,17.000,R,ugm-3 (BAM)
09-01-2018,21:00,24.166,R,ugm-3 (Ref.eq),17.18551,R,ugm-3,41.17844,R,ugm-3,67.52918,R,ugm-3,22.000,R,ugm-3 (BAM)